User: anonymous   Login
Location: Caltech
(34.1382°N, 118.1253°W)
Time: 17:02:08
(UTC-07:00)
Language:

Cosmos 2360 Rocket - Orbit

View from above orbital plane
View from above orbital plane
View from above satellite
View from above satellite

Ground track
Ground track

The orbit data is extracted from the following two-line orbital elements,

1 25407U 98045B   15181.08080740 -.00000234  00000-0 -94770-4 0  9999
2 25407 071.0119 110.4550 0009442 231.3613 128.6666 14.15716661874544
Epoch (UTC): 30 June 2015 01:56:21
Eccentricity: 0.0009442
inclination: 71.0119°
perigee height: 833 km
apogee height: 846 km
right ascension of ascending node: 110.4550°
argument of perigee: 231.3613°
revolutions per day: 14.15716661
mean anomaly at epoch: 128.6666°
orbit number at epoch: 87454

The dashed part of the orbit path shows where the satellite is in the earth's shadow,  

DLR